TimeEDT,TemperatureF,Dew PointF,Humidity,Sea Level PressureIn,VisibilityMPH,Wind Direction,Wind SpeedMPH,Gust SpeedMPH,PrecipitationIn,Events,Conditions,WindDirDegrees,DateUTC
12:15 AM,62.6,59.0,88,29.81,10.0,SSW,10.4,-,N/A,,Clear,210,2013-06-02 04:15:00
12:35 AM,62.6,59.0,88,29.81,10.0,SSW,8.1,-,N/A,,Clear,210,2013-06-02 04:35:00
12:55 AM,62.6,59.0,88,29.81,10.0,SSW,6.9,-,N/A,,Clear,200,2013-06-02 04:55:00
1:15 AM,62.6,59.0,88,29.81,10.0,SSW,5.8,-,N/A,,Clear,210,2013-06-02 05:15:00
1:35 AM,62.6,59.0,88,29.81,10.0,SSW,9.2,-,N/A,,Clear,210,2013-06-02 05:35:00
1:55 AM,60.8,59.0,94,29.80,10.0,SSW,6.9,-,N/A,,Clear,210,2013-06-02 05:55:00
2:15 AM,60.8,59.0,94,29.80,10.0,SSW,6.9,-,N/A,,Clear,210,2013-06-02 06:15:00
2:35 AM,60.8,59.0,94,29.79,10.0,SSW,9.2,-,N/A,,Clear,210,2013-06-02 06:35:00
2:55 AM,60.8,59.0,94,29.79,10.0,SSW,10.4,-,N/A,,Clear,210,2013-06-02 06:55:00
3:15 AM,60.8,59.0,94,29.78,10.0,SSW,10.4,-,N/A,,Clear,210,2013-06-02 07:15:00
3:35 AM,60.8,59.0,94,29.78,10.0,SSW,10.4,-,N/A,,Clear,210,2013-06-02 07:35:00
3:55 AM,60.8,59.0,94,29.79,10.0,SW,3.5,-,N/A,,Clear,230,2013-06-02 07:55:00
4:15 AM,60.8,59.0,94,29.79,10.0,South,5.8,-,N/A,,Clear,180,2013-06-02 08:15:00
4:35 AM,60.8,59.0,94,29.79,9.0,SSW,6.9,-,N/A,,Clear,210,2013-06-02 08:35:00
4:55 AM,60.8,59.0,94,29.79,7.0,SSW,6.9,-,N/A,,Clear,200,2013-06-02 08:55:00
5:15 AM,60.8,59.0,94,29.79,7.0,SSW,5.8,-,N/A,,Clear,200,2013-06-02 09:15:00
5:35 AM,60.8,59.0,94,29.80,7.0,SW,4.6,-,N/A,,Clear,220,2013-06-02 09:35:00
5:55 AM,60.8,60.8,100,29.80,8.0,SSW,5.8,-,N/A,,Clear,200,2013-06-02 09:55:00
6:15 AM,62.6,60.8,94,29.80,9.0,South,9.2,-,N/A,,Clear,190,2013-06-02 10:15:00
6:35 AM,62.6,60.8,94,29.81,9.0,SSW,9.2,-,N/A,,Clear,210,2013-06-02 10:35:00
6:55 AM,62.6,60.8,94,29.81,9.0,SSW,10.4,-,N/A,,Clear,210,2013-06-02 10:55:00
7:15 AM,64.4,60.8,88,29.81,9.0,SSW,10.4,-,N/A,,Clear,200,2013-06-02 11:15:00
7:35 AM,62.6,60.8,94,29.82,9.0,SSW,9.2,-,N/A,,Clear,200,2013-06-02 11:35:00
7:55 AM,64.4,60.8,88,29.82,10.0,SSW,10.4,-,N/A,,Clear,210,2013-06-02 11:55:00
8:15 AM,64.4,60.8,88,29.82,10.0,SSW,10.4,-,N/A,,Clear,210,2013-06-02 12:15:00
8:35 AM,66.2,62.6,88,29.82,10.0,South,6.9,-,N/A,,Clear,190,2013-06-02 12:35:00
8:55 AM,68.0,62.6,83,29.81,10.0,South,5.8,-,N/A,,Clear,180,2013-06-02 12:55:00
9:15 AM,68.0,62.6,83,29.81,10.0,South,5.8,-,N/A,,Clear,190,2013-06-02 13:15:00
9:35 AM,69.8,62.6,78,29.81,10.0,SSW,10.4,-,N/A,,Clear,210,2013-06-02 13:35:00
9:55 AM,69.8,64.4,83,29.80,10.0,SSW,5.8,-,N/A,,Clear,200,2013-06-02 13:55:00
10:15 AM,71.6,64.4,78,29.80,10.0,SSW,9.2,-,N/A,,Clear,200,2013-06-02 14:15:00
10:35 AM,71.6,64.4,78,29.81,10.0,SSW,11.5,-,N/A,,Clear,210,2013-06-02 14:35:00
10:55 AM,71.6,64.4,78,29.80,10.0,SSW,10.4,-,N/A,,Clear,200,2013-06-02 14:55:00
11:15 AM,73.4,64.4,73,29.80,10.0,SSW,9.2,-,N/A,,Clear,210,2013-06-02 15:15:00
11:35 AM,73.4,66.2,78,29.80,10.0,South,9.2,-,N/A,,Clear,190,2013-06-02 15:35:00
11:55 AM,73.4,66.2,78,29.79,10.0,South,10.4,-,N/A,,Clear,190,2013-06-02 15:55:00
12:15 PM,73.4,64.4,73,29.79,10.0,SSW,12.7,-,N/A,,Clear,210,2013-06-02 16:15:00
12:35 PM,73.4,64.4,73,29.79,10.0,SSW,15.0,-,N/A,,Clear,210,2013-06-02 16:35:00
12:55 PM,71.6,64.4,78,29.79,10.0,SSW,16.1,-,N/A,,Clear,200,2013-06-02 16:55:00
1:15 PM,71.6,64.4,78,29.78,9.0,SSW,19.6,27.6,N/A,,Clear,200,2013-06-02 17:15:00
1:35 PM,69.8,64.4,83,29.79,10.0,South,18.4,23.0,N/A,,Clear,190,2013-06-02 17:35:00
1:55 PM,69.8,64.4,83,29.78,10.0,South,19.6,23.0,N/A,,Clear,180,2013-06-02 17:55:00
2:15 PM,71.6,64.4,78,29.77,10.0,South,20.7,26.5,N/A,,Clear,190,2013-06-02 18:15:00
2:35 PM,69.8,62.6,78,29.77,10.0,SSW,20.7,27.6,N/A,,Clear,200,2013-06-02 18:35:00
2:55 PM,69.8,62.6,78,29.76,10.0,South,21.9,27.6,N/A,,Clear,190,2013-06-02 18:55:00
3:15 PM,69.8,62.6,78,29.75,10.0,SSW,24.2,29.9,N/A,,Clear,200,2013-06-02 19:15:00
3:35 PM,69.8,62.6,78,29.75,10.0,SSW,16.1,27.6,N/A,,Clear,210,2013-06-02 19:35:00
3:55 PM,68.0,62.6,83,29.73,10.0,SSW,16.1,25.3,N/A,,Clear,210,2013-06-02 19:55:00
4:15 PM,68.0,60.8,78,29.73,10.0,SSW,16.1,23.0,N/A,,Clear,210,2013-06-02 20:15:00
4:35 PM,68.0,60.8,78,29.73,10.0,SSW,18.4,21.9,N/A,,Clear,210,2013-06-02 20:35:00
4:55 PM,66.2,60.8,83,29.74,10.0,SSW,13.8,23.0,N/A,,Clear,210,2013-06-02 20:55:00
5:15 PM,66.2,60.8,83,29.74,10.0,SSW,13.8,20.7,N/A,,Clear,210,2013-06-02 21:15:00
5:35 PM,66.2,60.8,83,29.74,10.0,SSW,19.6,27.6,N/A,,Clear,200,2013-06-02 21:35:00
5:55 PM,66.2,60.8,83,29.75,10.0,SSW,15.0,23.0,N/A,,Clear,210,2013-06-02 21:55:00
6:15 PM,64.4,60.8,88,29.75,10.0,South,16.1,-,N/A,,Clear,190,2013-06-02 22:15:00
6:35 PM,64.4,60.8,88,29.75,10.0,SSW,18.4,24.2,N/A,,Clear,200,2013-06-02 22:35:00
6:55 PM,62.6,59.0,88,29.76,10.0,SSW,13.8,21.9,N/A,,Clear,200,2013-06-02 22:55:00
7:15 PM,64.4,60.8,88,29.77,10.0,SSW,15.0,20.7,N/A,,Mostly Cloudy,210,2013-06-02 23:15:00
7:35 PM,64.4,60.8,88,29.76,10.0,SSW,12.7,21.9,N/A,,Mostly Cloudy,200,2013-06-02 23:35:00
7:55 PM,64.4,60.8,88,29.76,10.0,SSW,13.8,20.7,N/A,,Scattered Clouds,200,2013-06-02 23:55:00
8:15 PM,62.6,60.8,94,29.75,9.0,SSW,12.7,-,N/A,,Clear,200,2013-06-03 00:15:00
8:35 PM,62.6,59.0,88,29.76,8.0,SSW,12.7,19.6,N/A,,Clear,200,2013-06-03 00:35:00
8:55 PM,60.8,59.0,94,29.77,9.0,SSW,8.1,-,N/A,,Clear,200,2013-06-03 00:55:00
9:15 PM,60.8,59.0,94,29.77,9.0,South,11.5,-,N/A,,Partly Cloudy,190,2013-06-03 01:15:00
9:35 PM,60.8,59.0,94,29.78,8.0,SSW,11.5,21.9,N/A,,Scattered Clouds,200,2013-06-03 01:35:00
9:55 PM,60.8,59.0,94,29.78,9.0,South,15.0,-,N/A,,Mostly Cloudy,190,2013-06-03 01:55:00
10:15 PM,60.8,59.0,94,29.78,8.0,SSW,11.5,17.3,N/A,,Mostly Cloudy,200,2013-06-03 02:15:00
10:35 PM,60.8,59.0,94,29.78,9.0,SSW,10.4,-,N/A,,Mostly Cloudy,200,2013-06-03 02:35:00
10:55 PM,60.8,57.2,88,29.77,8.0,SSW,11.5,-,N/A,,Overcast,200,2013-06-03 02:55:00
11:15 PM,60.8,59.0,94,29.77,9.0,SSW,11.5,-,N/A,,Overcast,200,2013-06-03 03:15:00
11:35 PM,60.8,59.0,94,29.76,7.0,SSW,6.9,-,0.01,,Mostly Cloudy,210,2013-06-03 03:35:00
11:55 PM,60.8,60.8,100,29.76,8.0,SSW,5.8,-,0.01,,Scattered Clouds,210,2013-06-03 03:55:00